Location: Miami, Florida
(25.6830°N, 80.1700°W)
Time: 13:30:48
(UTC-04:00)

Envisat - Visible Passes

Search period start: 24 February 2018 00:00
Search period end: 06 March 2018 00:00
Orbit: 764 x 766 km, 98.2° (Epoch: 24 February)

Date Brightness Start Highest point End Pass type
(mag) Time Alt. Az. Time Alt. Az. Time Alt. Az.
24 Feb 4.8 19:43:37 10° E 19:44:52 11° ENE 19:46:08 10° NE visible
24 Feb 3.5 21:18:37 12° S 21:23:19 58° W 21:28:19 10° NNW visible
25 Feb 3.0 20:41:45 10° SSE 20:46:40 54° ENE 20:51:36 10° N visible
25 Feb 6.0 22:24:28 10° WSW 22:25:50 11° W 22:27:12 10° WNW visible
26 Feb 4.1 20:06:25 10° ESE 20:10:11 21° ENE 20:13:57 10° NNE visible
26 Feb 4.7 21:44:33 10° SSW 21:48:56 29° W 21:53:20 10° NW visible
27 Feb 3.0 21:07:07 10° S 21:12:11 78° WSW 21:17:16 10° NNW visible
28 Feb 3.3 20:30:52 10° SE 20:35:35 40° ENE 20:40:19 10° N visible
28 Feb 5.7 22:11:47 10° SW 22:14:38 15° W 22:17:31 10° WNW visible
01 Mar 4.4 19:56:04 10° ESE 19:59:09 16° ENE 20:02:14 10° NNE visible
01 Mar 4.2 21:33:04 10° SSW 21:37:46 39° W 21:42:30 10° NNW visible
02 Mar 2.8 20:56:01 10° SSE 21:01:04 80° ENE 21:06:09 10° N visible
03 Mar 3.7 20:20:06 10° SE 20:24:31 31° ENE 20:28:56 10° NNE visible
03 Mar 5.3 21:59:46 10° SW 22:03:27 20° W 22:07:08 10° NW visible
04 Mar 4.7 19:46:08 10° E 19:48:08 12° ENE 19:50:08 10° NE visible
04 Mar 3.7 21:21:43 10° S 21:26:38 52° W 21:31:34 10° NNW visible
05 Mar 2.9 20:45:00 10° SSE 20:49:58 60° ENE 20:54:57 10° N visible
